Showing default

ICEYE-X64, 67373

Orbit data source: Space-Track

ICEYE-X64, 67373 is a Finnish payload satellite in SSO that was launched on Sun, 11 Jan 2026 UTC via an FALCON 9 launch vehicle from the Air Force Western Test Range (AFWTR). Payload-class satellites include a variety of spacecraft equipped with specific instruments for various scientific and technological missions. These include communications satellites like Starlink; space stations such as the ISS; scientific satellites like the Hubble; Earth observation satellites from companies like Planet Labs, Umbra, and HawkEye 360; GPS; miniature CubeSats for education and research; and military/defense satellites.

Loading next visibility...
Identifier
67373, 2026-004L
Orbit
SSO
Country
Flag of FIFI / FIN
Related business
Manufacturer
ICEYE
Mission
Operational Defense Radar Imaging
Bus & Motor
ICEYE, Unknown motor
Mass
120 kg wet, 120 kg dry
Launch date (UTC)
2026-01-11 (4 months ago)
Launch vehicle
FALCON 9
Launch site
Air Force Western Test Range (AFWTR)
Object type
Payload
Rocket body
Debris
Shape & HBR
Box + 1 Pan, 2.4 m
Radar Cross Section
0.776 m²

Expand to show TLE details & history
Last TLE update: 12 hours ago

TLE from 12 hours ago
0 ICEYE-X64
1 67373U 26004L   26146.26708508  .00001293  00000-0  14731-3 0  9997
2 67373  97.8015 145.1912 0005314 193.2986 166.8091 14.87859183 20032
Epoch: 2026-05-26T06:24Z
TLE epoch observation values (Epoch: 2026-05-26T06:24:36.150Z)
Latitude
-0.00008°
Longitude
165.19761°
Altitude
611.275 km
Speed
7.552 km/s
True Right ascension
09h 40m 45s
True Declination
0° 00' 00"
Sunlit
Object was in daylight at epoch
Visualization orbit readout
Latitude
Unknown
Longitude
Unknown
Altitude
Unknown
Speed
Unknown
Apparent Right ascension
Unknown
Apparent Declination
Unknown
Sunlit
N/A
Visualization observer readout
Local Sidereal Time
03:37:14
Azimuth
Unknown
Elevation
Unknown
Doppler factor
Unknown
Orbital elements
Apogee altitude
605.361 km
Perigee altitude
597.943 km
Semi-major axis
6,979.789 km
Eccentricity
0.00053
Inclination
97.8015°
RAAN
145.1912°
Arg. of periapsis
193.2986°
True anomaly
166.82299°
Mean anomaly
166.8091°
Eccentric anomaly
166.81604°
Mean motion
3.72203 °/min
Orbital period
96.72 mins
BSTAR
0.00014731
Loading maneuver chart data...
Computing Atmospheric mass density...
Loading historical data...
Loading historical data...
Loading historical data...
Loading historical data...
Loading historical data...
Loading historical data...
Loading historical data...

Documentation

Showing up to 5 results
|